Los Angeles, CA (90052)

1:58 PM PST on February 12, 2016 (GMT -0800)
Victoria Ave Elementary | | Change Station
CLOSE
Current Station
Personal Weather Station
Location: South Gate, CA
Elevation: 125 ft
Nearby Weather Stations
Active Advisory: High Surf Advisory

Elev 125 ft 33.95 °N, 118.21 °W | Updated 1 minute ago

Clear
Clear
85.3 °F
Feels Like 83 °F
N
5.0
Wind Variable Wind from WSW
Gusts 5.0 mph

Today
High -- | Low -- °F
--% Chance of Precip.
Yesterday
High -- | Low -- °F
Precip. -- in
Pressure 30.01 in
Visibility 10.0 miles
Clouds Clear
Heat Index 83 °F
Dew Point 46 °F
Humidity 26%
Rainfall 0.00 in
Snow Depth Not available.
6:41 AM 5:33 PM
Waxing Crescent, 24% visible
METAR KCQT 122147Z AUTO 27003KT 10SM CLR 29/07 A3002 RMK AO2 SLP162 T02890072
Pressure 30.01 in
Visibility 10.0 miles
Clouds Clear
Heat Index 83 °F
Dew Point 46 °F
Humidity 26%
Rainfall 0.00 in
Snow Depth Not available.
6:41 AM 5:33 PM
Waxing Crescent, 24% visible
METAR KCQT 122147Z AUTO 27003KT 10SM CLR 29/07 A3002 RMK AO2 SLP162 T02890072

10-Day Weather Forecast

Almanac

Astronomy

Feb. 12, 2016 Rise Set
Actual Time
Civil Twilight
Nautical Twilight
Astronomical Twilight
Moon
Length of Visible Light
Length of Day
Tomorrow will be .
, % of the Moon is Illuminated

Today's Extremes

State Highs State Lows

Community

WunderPhotos

Upload Photos

1,892,408 photos uploaded!

WunderBlog® & News

Nearby

Air Quality

  Air Quality AQ Index Pollutant
Not available.

Snow Depth

Station Depth Elevation

Earthquake Activity

City Distance Mag. Time & Date
Minimum magnitude displayed is 2.5.

Coastal Water Temperatures

Place Temperature

Stations

Nearby Weather Stations

Station Location Temp. Windchill Dew Point Humidity Wind Precip. Elev Updated Type
                   

Watches & Warnings

High Surf Advisory
Issued: 10:54 AM PST Feb. 12, 2016 – National Weather Service

... High surf advisory remains in effect until noon PST Sunday...

* surf and timing... surf will build to 7 to 10 feet through this
evening then gradually subside Saturday through Sunday.

* Impacts... the large surf may cause minor beach erosion and
strong rip currents that will create a risk of ocean drowning.
Sneaker waves can suddenly overrun previously dry beaches and
jetties around the time of high tide.

* Locations... surf will be highest on exposed west and northwest
facing beaches. Local sets to 12 feet are possible near
Ventura Harbor.

Precautionary/preparedness actions...

A high surf advisory means that high surf and rip currents will
make swimming and rock jetties dangerous.

Remember... if caught in a rip current... swim parallel to shore
until you are free of the powerful current. Always swim near a
lifeguard.